{"data":{"norad_id":38352,"epoch":"2026-09-19T21:02:34.739808Z","epoch_age_seconds":75718,"freshness":"FRESH","line1":"1 38352U 12028A   26262.87679097 -.00000296  00000+0  00000+0 0  9991","line2":"2 38352   1.6922  82.5308 0001113 137.5828 192.5760  1.00269900 52249","mean_motion":1.002699,"eccentricity":0.0001113,"inclination_deg":1.6922,"raan_deg":82.5308,"arg_perigee_deg":137.5828,"mean_anomaly_deg":192.576,"bstar":0,"rev_number":5224,"period_min":1436.1239015896,"perigee_km":35782.430409914,"apogee_km":35791.81639688,"semimajor_km":42165.260403397,"source":"CELESTRAK","updated_at":"2026-09-20T09:00:35.175067Z"}}